Regional Weather Roundup
Issued by NWS

Home | Current Version | Previous Version | Text Only | Print | Product List | Glossary Off
Versions: 1 2 3 4 5 6 7 8 9 10 11 12 13 14 15 16 17 18 19 20 21 22 23 24 25 26 27 28 29 30 31 32 33 34 35 36 37 38 39 40 41 42 43 44 45 46 47 48 49 50

000
ASUS43 KLSX 262259
RWRMO

WEATHER SUMMARY FOR MISSOURI
NATIONAL WEATHER SERVICE SPRINGFIELD MO
500 PM CST FRI DEC 26 2014

NOTE: "FAIR" INDICATES FEW OR NO CLOUDS BELOW 12,000 FEET WITH NO
       SIGNIFICANT WEATHER AND/OR OBSTRUCTIONS TO VISIBILITY.
       CURRENT SKY AND/OR WEATHER CONDITIONS ARE NOT AVAILABLE FOR
       CHILLICOTHE AND FARMINGTON.

MOZ001>031-035>038-043-044-053-054-270000-
...NORTHERN AND WESTERN MISSOURI...

CITY           SKY/WX    TMP DP  RH WIND       PRES   REMARKS
KANSAS CTY INT CLOUDY    40  34  79 N8        29.93S
KANSAS C DTWN  CLOUDY    44  35  70 NW8       29.93R
LEE`S SUMMIT   CLOUDY    48  40  73 NW8       29.92R
ST JOSEPH      CLOUDY    38  33  82 NE7       29.94F
CHILLICOTHE      N/A     50  43  77 CALM      29.93S
KIRKSVILLE     CLOUDY    51  43  74 CALM      29.93F

$$
MOZ066>068-077>081-088>096-101>105-270000-
...SOUTHWEST MISSOURI...

CITY           SKY/WX    TMP DP  RH WIND       PRES   REMARKS
SPRINGFIELD    CLOUDY    51  46  83 SE18      29.93F
JOPLIN         LGT RAIN  52  50  93 S8        29.93R FOG

$$
MOZ032>034-039>042-045>050-055>058-069>072-270000-
...CENTRAL MISSOURI...

CITY           SKY/WX    TMP DP  RH WIND       PRES   REMARKS
COLUMBIA       MOCLDY    55  45  68 S14       29.95R
JEFFERSON CITY CLOUDY    56  44  64 SE5       29.96R
ROLLA          CLOUDY    53  45  74 S13       29.97S
SEDALIA        CLOUDY    56  45  66 S14       29.93R
OSAGE BEACH    CLOUDY    55  45  67 S14       29.96S

$$
MOZ051-052-059>065-270000-
...EAST CENTRAL MISSOURI...

CITY           SKY/WX    TMP DP  RH WIND       PRES   REMARKS
ST LOUIS INTL  MOCLDY    58  43  57 S12       30.01F
SPIRIT OF STL  MOCLDY    58  44  60 S8        29.99F
ST CHARLES     CLOUDY    55  45  68 S7        29.99F

$$
MOZ072>076-082>087-097>100-106>115-270000-
...SOUTH CENTRAL AND SOUTHEAST MISSOURI...

CITY           SKY/WX    TMP DP  RH WIND       PRES   REMARKS
CAPE GIRARDEAU CLOUDY    50  43  77 S5        30.11F
FARMINGTON     MOCLDY    50  39  66 SE12      30.06F
POPLAR BLUFF   CLOUDY    52  42  69 S6        30.09F
WEST PLAINS    CLOUDY    49  39  68 S13G20    30.04S

$$



USA.gov is the U.S. government's official web portal to all federal, state and local government web resources and services.